This is the latest recevied weather packets stored in our database for station/object DL6MAA-11. If no packets are shown the sender has not sent any weather packets the latest 10 day(s).
| Time | Temp. | Humidity | Pressure | Rain* | Wind** | Luminosity | Snow |
|---|---|---|---|---|---|---|---|
| 1777975018 | 19.44° C | 56% | 1005 hPa | 0 mm | - | 339 W/m² | - |
| 1777974723 | 19.44° C | 59% | 1005 hPa | 0 mm | - | 323 W/m² | - |
| 1777974421 | 19.44° C | 57% | 1005 hPa | 0 mm | - | 257 W/m² | - |
| 1777974123 | 20° C | 55% | 1005 hPa | 0 mm | - | 253 W/m² | - |
| 1777973809 | 20° C | 55% | 1005 hPa | 0 mm | - | 269 W/m² | - |
| 1777973517 | 20° C | 59% | 1005 hPa | 0 mm | - | 279 W/m² | - |
| 1777973209 | 19.44° C | 60% | 1005.4 hPa | 0 mm | - | 257 W/m² | - |
| 1777972917 | 19.44° C | 55% | 1005.4 hPa | 0 mm | - | 230 W/m² | - |
| 1777972626 | 19.44° C | 57% | 1005.4 hPa | 0 mm | - | 169 W/m² | - |
| 1777972310 | 18.89° C | 63% | 1005.5 hPa | 0 mm | - | 174 W/m² | - |
| 1777972009 | 18.33° C | 61% | 1005.5 hPa | 0 mm | - | 169 W/m² | - |
| 1777971717 | 17.78° C | 61% | 1005.5 hPa | 0 mm | - | 162 W/m² | - |
| 1777971419 | 17.78° C | 61% | 1005.7 hPa | 0 mm | - | 162 W/m² | - |
| 1777971123 | 17.22° C | 62% | 1005.7 hPa | 0 mm | - | 142 W/m² | - |
| 1777970821 | 17.22° C | 62% | 1005.7 hPa | 0 mm | - | 114 W/m² | - |
| 1777970529 | 17.22° C | 63% | 1005.5 hPa | 0 mm | - | 128 W/m² | - |
| 1777970209 | 17.78° C | 61% | 1005.5 hPa | 0 mm | - | 121 W/m² | - |
| 1777969928 | 18.33° C | 60% | 1005.5 hPa | 0 mm | - | 394 W/m² | - |
| 1777969612 | 17.78° C | 63% | 1005.8 hPa | 0 mm | - | 482 W/m² | - |
| 1777969310 | 17.78° C | 64% | 1005.8 hPa | 0 mm | - | 432 W/m² | - |
| 1777969018 | 17.22° C | 66% | 1005.8 hPa | 0 mm | - | 441 W/m² | - |
| 1777968722 | 16.67° C | 63% | 1005.8 hPa | 0 mm | - | 454 W/m² | - |
| 1777968430 | 16.67° C | 66% | 1005.8 hPa | 0 mm | - | 429 W/m² | - |
| 1777968114 | 16.67° C | 68% | 1005.8 hPa | 0 mm | - | 413 W/m² | - |
| 1777967816 | 16.11° C | 69% | 1006.1 hPa | 0 mm | - | 353 W/m² | - |
* Rain since midnight (hover to see other rain measurements)
** Current wind speed in m/s (hover to see current wind gust speed)